This demonstration page uses our WeatherBlox Daily Observations layout. Learn more.

Left ArrowRight Arrow

44.89941, -97.11507

Hourly Observations for November 29, 2019

Temp ( °F °C ) Dew Point ( °F °C ) Humidity (%) Winds ( mph kmh ) Pressure ( in mb ) Visibility ( mi km ) Precip ( " mm )
12:31 am 00:31 Cloudy 23 -5 21 -6.1 92 92 SE 10 17 30.39 1029 9 14 0.00 0.00
12:49 am 00:49 Cloudy 23 -5 21 -6 93 93 SSE 9 15 30.39 1029 10 16 0.00 0.00
12:53 am 00:53 Cloudy 23 -5 21 -6.1 92 92 SSE 10 17 30.36 1028 10 16 0.00 0.00
1:53 am 01:53 Cloudy 24 -4.4 21 -6.1 88 88 SSE 8 13 30.34 1027 10 16 0.00 0.00
2:53 am 02:53 Cloudy 24 -4.4 22 -5.6 91 91 SE 7 11 30.35 1028 10 16 0.00 0.00
3:48 am 03:48 Cloudy 25 -4 23 -5 93 93 SSE 7 11 30.37 1028 10 16 0.00 0.00
3:53 am 03:53 Cloudy 25 -3.9 23 -5 92 92 SSE 7 11 30.33 1027 9 14 0.00 0.00
4:08 am 04:08 Cloudy with Mist and Fog 25 -3.9 23 -5 92 92 SE 8 13 30.36 1028 4 6 0.00 0.00
4:53 am 04:53 Cloudy with Mist and Fog 25 -3.9 24 -4.4 96 96 SE 7 11 30.31 1027 3 5 0.00 0.00
5:53 am 05:53 Cloudy with Mist and Fog 26 -3.3 25 -3.9 96 96 SE 9 15 30.29 1026 5 8 0.00 0.00
6:53 am 06:53 Cloudy 26 -3.3 24 -4.4 92 92 SE 9 15 30.28 1025 10 16 0.00 0.00
7:53 am 07:53 Cloudy 25 -3.9 24 -4.4 96 96 SE 8 13 30.27 1025 10 16 0.00 0.00
8:53 am 08:53 Cloudy 26 -3.3 24 -4.4 92 92 SE 8 13 30.27 1025 10 16 0.00 0.00
9:53 am 09:53 Cloudy 27 -2.8 25 -3.9 92 92 SE 6 9 30.26 1025 10 16 0.00 0.00
10:53 am 10:53 Cloudy 28 -2.2 26 -3.3 92 92 ESE 6 9 30.24 1024 10 16 0.00 0.00
11:53 am 11:53 Cloudy 28 -2.2 26 -3.3 92 92 ESE 8 13 30.21 1023 9 14 0.00 0.00
12:53 pm 12:53 Cloudy 28 -2.2 27 -2.8 96 96 VRB 7 11 30.18 1022 9 14 0.00 0.00
1:53 pm 13:53 Cloudy 28 -2.2 26 -3.3 92 92 ESE 7 11 30.17 1022 10 16 0.00 0.00
2:53 pm 14:53 Cloudy 28 -2.2 26 -3.3 92 92 E 9 15 30.13 1020 7 11 0.00 0.00
3:53 pm 15:53 Cloudy with Mist and Fog 28 -2.2 26 -3.3 92 92 E 13 20 30.11 1020 6 10 0.00 0.00
4:49 pm 16:49 Cloudy with Mist and Fog 27 -3 27 -3 100 100 E 9 15 30.11 1020 3 4 0.00 0.00
4:53 pm 16:53 Cloudy with Mist and Fog 27 -2.8 27 -2.8 100 100 E 15 24 30.09 1019 3 5 0.00 0.00
5:26 pm 17:26 Cloudy with Mist and Fog 28 -2.2 27 -2.8 96 96 ESE 10 17 30.12 1020 3 4 0.00 0.00
5:35 pm 17:35 Cloudy with Mist and Fog 28 -2.2 27 -2.8 96 96 E 12 19 30.11 1019 3 5 0.00 0.00
5:43 pm 17:43 Cloudy with Mist and Fog 28 -2.2 27 -2.8 96 96 E 14 22 30.11 1019 2 3 0.00 0.00
5:50 pm 17:50 Cloudy with Mist and Fog 28 -2 27 -3 93 93 E 10 17 30.10 1019 1 2 0.00 0.00
5:51 pm 17:51 Cloudy with Mist and Fog 28 -2.2 27 -2.8 96 96 E 9 15 30.08 1019 1 2 0.00 0.00
6:12 pm 18:12 Cloudy with Mist and Fog 28 -2.2 27 -2.8 96 96 E 16 26 30.10 1019 1 1 0.00 0.00
6:53 pm 18:53 Cloudy with Mist and Fog 28 -2.2 27 -2.8 96 96 E 12 19 30.06 1018 1 2 0.00 0.00
7:05 pm 19:05 Cloudy with Mist and Fog 28 -2.2 27 -2.8 96 96 ESE 9 15 30.09 1019 2 3 0.00 0.00
7:18 pm 19:18 Cloudy with Mist and Fog 28 -2.2 27 -2.8 96 96 E 13 20 30.08 1018 3 5 0.00 0.00
7:44 pm 19:44 Cloudy with Light Snow 28 -2.2 27 -2.8 96 96 E 12 19 30.07 1018 3 4 0.00 0.00
7:53 pm 19:53 Cloudy with Light Snow 28 -2.2 27 -2.8 96 96 E 10 17 30.04 1017 2 2 0.00 0.00
8:23 pm 20:23 Cloudy with Light Snow 28 -2.2 27 -2.8 96 96 E 9 15 30.05 1017 2 2 0.00 0.00
8:33 pm 20:33 Cloudy with Light Snow 28 -2.2 27 -2.8 96 96 E 12 19 30.05 1017 3 4 0.00 0.00
8:40 pm 20:40 Cloudy with Light Snow 28 -2.2 27 -2.8 96 96 E 10 17 30.05 1017 3 5 0.00 0.00
8:48 pm 20:48 Cloudy with Light Snow 28 -2 27 -3 93 93 E 9 15 30.03 1017 3 4 0.00 0.00
8:53 pm 20:53 Cloudy with Light Snow 28 -2.2 27 -2.8 96 96 E 13 20 30.01 1016 2 3 0.00 0.00
9:07 pm 21:07 Cloudy with Light Snow 29 -1.7 27 -2.8 92 92 E 13 20 30.02 1017 3 5 0.00 0.00
9:46 pm 21:46 Cloudy 29 -1.7 27 -2.8 92 92 E 14 22 29.99 1016 9 14 0.00 0.00
9:53 pm 21:53 Cloudy 29 -1.7 26 -3.3 89 89 E 13 20 29.96 1015 10 16 0.00 0.00
10:15 pm 22:15 Cloudy with Light Snow 29 -1.7 26 -3.3 89 89 E 15 24 29.97 1015 5 8 0.00 0.00
10:27 pm 22:27 Cloudy with Light Snow 29 -1.7 27 -2.8 92 92 E 17 28 29.96 1015 2 3 0.01 0.25
10:35 pm 22:35 Cloudy with Light Snow 29 -1.7 27 -2.8 92 92 E 13 20 29.96 1015 1 2 0.01 0.25
10:44 pm 22:44 Cloudy with Snow 29 -1.7 27 -2.8 92 92 E 13 20 29.96 1015 1 1 0.01 0.25
10:53 pm 22:53 Mostly Cloudy with Snow 29 -1.7 27 -2.8 92 92 E 12 19 29.93 1013 1 1 0.02 0.51
11:04 pm 23:04 Cloudy with Light Snow 29 -1.7 27 -2.8 92 92 E 15 24 29.95 1014 2 2 0.00 0.00
11:23 pm 23:23 Cloudy with Light Snow 29 -1.7 27 -2.8 92 92 E 15 24 29.94 1014 2 3 0.01 0.25
11:29 pm 23:29 Cloudy with Light Snow 29 -1.7 26 -3.3 89 89 E 13 20 29.94 1014 3 5 0.01 0.25
11:37 pm 23:37 Cloudy with Light Snow 29 -1.7 26 -3.3 89 89 E 15 24 29.94 1014 3 4 0.01 0.25
11:45 pm 23:45 Cloudy with Light Snow 29 -1.7 26 -3.3 89 89 E 13 20 29.94 1014 3 5 0.01 0.25
11:53 pm 23:53 Cloudy with Light Snow 29 -1.7 26 -3.3 89 89 E 13 20 29.91 1013 4 6 0.01 0.25

Powered by AerisWeather